{"data":{"norad_id":62660,"epoch":"2026-09-19T04:17:28.911840Z","epoch_age_seconds":128825,"freshness":"FRESH","line1":"1 62660U 25009BD  26262.17880685  .00007558  00000+0  25435-3 0  9993","line2":"2 62660  97.3880 343.1587 0003081  23.5676 336.5706 15.31067624150875","mean_motion":15.31067624,"eccentricity":0.0003081,"inclination_deg":97.388,"raan_deg":343.1587,"arg_perigee_deg":23.5676,"mean_anomaly_deg":336.5706,"bstar":0.00025435,"rev_number":15087,"period_min":94.05201817526,"perigee_km":470.51500397838,"apogee_km":474.73644396889,"semimajor_km":6850.7627239736,"source":"CELESTRAK","updated_at":"2026-09-20T09:00:34.722009Z"}}